Time,TemperatureF,DewpointF,PressureIn,WindDirection,WindDirectionDegrees,WindSpeedMPH,WindSpeedGustMPH,Humidity,HourlyPrecipIn,Conditions,Clouds,dailyrainin,SolarRadiationWatts/m^2,SoftwareType,DateUTC
2013-01-04 00:03:00,49.0,33.0,-100.00,North,7,5.0,10.0,53,0.00,,,0.00,57.000000,,2013-01-04 00:03:00,
2013-01-04 00:33:00,47.0,36.0,-100.00,NNE,22,5.0,9.0,66,0.00,,,0.00,4.000000,,2013-01-04 00:33:00,
2013-01-04 00:42:00,47.0,36.0,-100.00,NNE,22,5.0,9.0,66,0.00,,,0.00,4.000000,,2013-01-04 00:42:00,
2013-01-04 00:53:00,47.0,36.0,-100.00,NNE,22,5.0,9.0,66,0.00,,,0.00,4.000000,,2013-01-04 00:53:00,
2013-01-04 01:02:00,47.0,36.0,-100.00,NNE,22,5.0,9.0,66,0.00,,,0.00,4.000000,,2013-01-04 01:02:00,
2013-01-04 01:33:00,47.0,37.0,-100.00,North,359,5.0,11.0,68,0.00,,,0.00,0.000000,,2013-01-04 01:33:00,
2013-01-04 01:42:00,47.0,37.0,-100.00,North,359,5.0,11.0,68,0.00,,,0.00,0.000000,,2013-01-04 01:42:00,
2013-01-04 01:52:00,47.0,37.0,-100.00,North,359,5.0,11.0,68,0.00,,,0.00,0.000000,,2013-01-04 01:52:00,
2013-01-04 02:02:00,47.0,37.0,-100.00,North,359,5.0,11.0,68,0.00,,,0.00,0.000000,,2013-01-04 02:02:00,
2013-01-04 02:33:00,46.0,36.0,-100.00,North,8,5.0,10.0,67,0.00,,,0.00,0.000000,,2013-01-04 02:33:00,
2013-01-04 02:42:00,46.0,36.0,-100.00,North,8,5.0,10.0,67,0.00,,,0.00,0.000000,,2013-01-04 02:42:00,
2013-01-04 02:53:00,46.0,36.0,-100.00,North,8,5.0,10.0,67,0.00,,,0.00,0.000000,,2013-01-04 02:53:00,
2013-01-04 03:02:00,46.0,36.0,-100.00,North,8,5.0,10.0,67,0.00,,,0.00,0.000000,,2013-01-04 03:02:00,
2013-01-04 03:33:00,45.0,38.0,-100.00,NNE,12,4.0,8.0,75,0.00,,,0.00,0.000000,,2013-01-04 03:33:00,
2013-01-04 03:43:00,45.0,38.0,-100.00,NNE,12,4.0,8.0,75,0.00,,,0.00,0.000000,,2013-01-04 03:43:00,
2013-01-04 03:53:00,45.0,38.0,-100.00,NNE,12,4.0,8.0,75,0.00,,,0.00,0.000000,,2013-01-04 03:53:00,
2013-01-04 04:02:00,45.0,38.0,-100.00,NNE,12,4.0,8.0,75,0.00,,,0.00,0.000000,,2013-01-04 04:02:00,
2013-01-04 04:32:00,45.0,38.0,-100.00,NNE,23,5.0,7.0,75,0.00,,,0.00,0.000000,,2013-01-04 04:32:00,
2013-01-04 04:42:00,45.0,38.0,-100.00,NNE,23,5.0,7.0,75,0.00,,,0.00,0.000000,,2013-01-04 04:42:00,
2013-01-04 04:52:00,45.0,38.0,-100.00,NNE,23,5.0,7.0,75,0.00,,,0.00,0.000000,,2013-01-04 04:52:00,
2013-01-04 05:03:00,45.0,38.0,-100.00,NNE,23,5.0,7.0,75,0.00,,,0.00,0.000000,,2013-01-04 05:03:00,
2013-01-04 05:33:00,45.0,38.0,-100.00,NE,41,5.0,9.0,77,0.00,,,0.00,0.000000,,2013-01-04 05:33:00,
2013-01-04 05:42:00,45.0,38.0,-100.00,NE,41,5.0,9.0,77,0.00,,,0.00,0.000000,,2013-01-04 05:42:00,
2013-01-04 05:53:00,45.0,38.0,-100.00,NE,41,5.0,9.0,77,0.00,,,0.00,0.000000,,2013-01-04 05:53:00,
2013-01-04 06:02:00,45.0,38.0,-100.00,NE,41,5.0,9.0,77,0.00,,,0.00,0.000000,,2013-01-04 06:02:00,
2013-01-04 06:33:00,44.0,37.0,-100.00,ENE,60,5.0,10.0,75,0.00,,,0.00,0.000000,,2013-01-04 06:33:00,
2013-01-04 06:43:00,44.0,37.0,-100.00,ENE,60,5.0,10.0,75,0.00,,,0.00,0.000000,,2013-01-04 06:43:00,
2013-01-04 06:52:00,44.0,37.0,-100.00,ENE,60,5.0,10.0,75,0.00,,,0.00,0.000000,,2013-01-04 06:52:00,
2013-01-04 07:02:00,44.0,37.0,-100.00,ENE,60,5.0,10.0,75,0.00,,,0.00,0.000000,,2013-01-04 07:02:00,
2013-01-04 07:32:00,42.0,36.0,-100.00,NE,50,4.0,8.0,80,0.00,,,0.00,0.000000,,2013-01-04 07:32:00,
2013-01-04 07:42:00,42.0,36.0,-100.00,NE,50,4.0,8.0,80,0.00,,,0.00,0.000000,,2013-01-04 07:42:00,
2013-01-04 07:52:00,42.0,36.0,-100.00,NE,50,4.0,8.0,80,0.00,,,0.00,0.000000,,2013-01-04 07:52:00,
2013-01-04 08:02:00,42.0,36.0,-100.00,NE,50,4.0,8.0,80,0.00,,,0.00,0.000000,,2013-01-04 08:02:00,
2013-01-04 08:32:00,42.0,36.0,-100.00,NNE,29,4.0,7.0,80,0.00,,,0.00,0.000000,,2013-01-04 08:32:00,
2013-01-04 08:42:00,42.0,36.0,-100.00,NNE,29,4.0,7.0,80,0.00,,,0.00,0.000000,,2013-01-04 08:42:00,
2013-01-04 08:53:00,42.0,36.0,-100.00,NNE,29,4.0,7.0,80,0.00,,,0.00,0.000000,,2013-01-04 08:53:00,
2013-01-04 09:02:00,42.0,36.0,-100.00,NNE,29,4.0,7.0,80,0.00,,,0.00,0.000000,,2013-01-04 09:02:00,